Flag for Germany Weather past 2 weeks in Aurich, Lower Saxony, Germany

Now
52 °F

Scattered clouds.


Feels Like: 46 °F
Forecast: 44 / 60 °F
Wind: 20 mph from West

Location: Wittmundhaven

Current Time: May 30, 2015 at 9:25:13 PM

Latest Report: May 30, 2015 at 8:20 PM


Visibility: N/A

Pressure: 29.95 "Hg

Humidity: 67%

Dew point: 41 °F

Location of AurichLocation

Historic Weather in Aurich — Graph

°F

Aurich temperature yesterday

Maximum temperature yesterday: 61 °F (at 12:20 PM)
Minimum temperature yesterday: 41 °F (at 3:20 AM)
Average temperature yesterday: 50 °F

Past Weeks' High & Low Weather Summary

 TemperatureHumidityPressure
High66 °F (May 22, 3:20 PM)94% (May 16, 2:20 PM)30.30 "Hg (May 16, 2:20 PM)
Low41 °F (May 16, 5:20 AM)41% (May 17, 2:20 PM)29.53 "Hg (May 18, 9:20 PM)
Average51 °F75%29.99 "Hg
* Reported May 15 7:20 PM — May 30 7:20 PM, Aurich, Weather by CustomWeather, © 2015

Note: Actual official high and low records may vary slightly from our data, if they occured in-between our weather recording intervals... More about our weather records

Advertising

Aurich weather history for previous 24 hours

 ConditionsComfort  
Time TempWeatherWind HumidityBarometerVisibility
7:20 PM
Sat, May 30
54 °FScattered clouds.20 mph63%29.95 "HgN/A
6:20 PM55 °FScattered clouds.22 mph59%29.92 "HgN/A
5:20 PM55 °FScattered clouds.22 mph59%29.92 "HgN/A
4:20 PM55 °FScattered clouds.20 mph59%29.89 "HgN/A
3:20 PM55 °FScattered clouds.18 mph59%29.86 "HgN/A
2:20 PM52 °FScattered clouds.15 mph67%29.86 "HgN/A
1:20 PM48 °FBroken clouds.12 mph76%29.86 "HgN/A
12:20 PM48 °FSprinkles. Broken clouds.10 mph82%29.83 "HgN/A
11:20 AM50 °FSprinkles. Broken clouds.15 mph76%29.80 "HgN/A
10:20 AM48 °FScattered clouds.16 mph82%29.77 "HgN/A
9:20 AM45 °FBroken clouds.7 mph87%29.77 "HgN/A
8:20 AM48 °FSprinkles. Broken clouds.10 mph87%29.74 "Hg4 mi
7:20 AM46 °FSprinkles. Scattered clouds.10 mph87%29.74 "HgN/A
6:20 AM46 °FScattered clouds.7 mph82%29.71 "HgN/A
5:20 AM46 °FPartly cloudy.9 mph82%29.71 "HgN/A
4:20 AM46 °FPassing clouds.12 mph87%29.68 "Hg5 mi
3:20 AM46 °FLight rain. Partly cloudy.12 mph93%29.65 "HgN/A
2:20 AM46 °FRain. Partly cloudy.14 mph93%29.65 "Hg5 mi
1:20 AM48 °FPassing clouds.17 mph82%29.62 "HgN/A
12:20 AM50 °FPassing clouds.22 mph76%29.62 "HgN/A
11:20 PM
Fri, May 29
50 °FPassing clouds.18 mph82%29.62 "HgN/A
10:20 PM52 °FRain. Partly sunny.16 mph82%29.62 "Hg4 mi
9:20 PM52 °FLight rain. Partly sunny.13 mph88%29.59 "HgN/A
Weather by CustomWeather, © 2015

See weather overviewHow to use our weather pages